Terminal Aerodrome Forecast
Issued by NWS

Home | Current Version | Previous Version | Text Only | Print | Product List | Glossary On
Versions: 1 2 3 4 5 6 7 8 9 10 11 12 13 14 15 16 17 18 19 20 21 22 23 24 25 26 27 28 29 30 31 32 33 34 35 36 37 38 39
000
FTUS45 KSLC 212333
TAFOGD
TAF
KOGD 212333Z 2200/2224 21006KT P6SM SCT100 SCT150
     FM220300 17009KT P6SM SCT100
     FM221500 17009KT P6SM VCSH SCT080 BKN100
     FM222000 21010KT P6SM -SHRA SCT060 BKN080=

USA.gov is the U.S. government's official web portal to all federal, state and local government web resources and services.